Regional Weather Roundup
Issued by NWS

Home | Current Version | Previous Version | Graphics & Text | Print | Product List | Glossary Off
Versions: 1 2 3 4 5 6 7 8 9 10 11 12 13 14 15 16 17 18 19 20 21 22 23 24 25 26 27 28 29 30 31 32 33 34 35 36 37 38 39 40 41 42 43 44 45 46 47 48 49 50

000
ASUS43 KMKX 220120
RWRWI

WISCONSIN REGIONAL WEATHER ROUNDUP
NATIONAL WEATHER SERVICE MILWAUKEE/SULLIVAN WI
700 PM CST SUN JAN 21 2018

NOTE: "FAIR" INDICATES FEW OR NO CLOUDS BELOW 12,000 FEET WITH NO
SIGNIFICANT WEATHER AND/OR OBSTRUCTIONS TO VISIBILITY.

WIZ001-002-006>008-014>016-023>028-220200-
NORTHWEST WISCONSIN

CITY           SKY/WX    TMP DP  RH WIND       PRES   REMARKS
SUPERIOR ARPT  CLOUDY    31  30  97 NE9G16    30.06R WCI  23
ASHLAND        FOG       31  30  96 NE6       30.06R VSB 1/2 WCI  25
HAYWARD        CLOUDY    33  27  78 NE8       30.00R WCI  26
SIREN          CLOUDY    35  28  76 NE5       30.00S WCI  31
CUMBERLAND     CLOUDY    34  28  80 NE7       29.96F WCI  28
RICE LAKE      CLOUDY    36  31  82 N9        29.98S WCI  29
CHETEK         CLOUDY    34  30  86 CALM      29.96R
LADYSMITH      CLOUDY    38  31  76 NE7       29.98R WCI  32
EAU CLAIRE     CLOUDY    37  29  72 NE3       29.94S
MENOMONIE      CLOUDY    36  30  79 N6        29.95S WCI  31
NEW RICHMOND   CLOUDY    35  28  78 NE5       29.96F WCI  31
OSCEOLA        CLOUDY    36  29  76 N7        29.99F WCI  30
$$

WIZ003>005-009-010-017-018-220200-
NORTH CENTRAL WISCONSIN

CITY           SKY/WX    TMP DP  RH WIND       PRES   REMARKS
MANITOWISH WTR CLOUDY    32  32  97 N3        29.97S
ARBOR VITAE    CLOUDY    37  32  84 NE6       29.96S WCI  32
WOODRUFF       CLOUDY    37  32  84 NE6       29.96S WCI  32
RHINELANDER    CLOUDY    36  32  85 NE3       29.96S
EAGLE RIVER    CLOUDY    33  29  84 NE7       29.96S WCI  27
LAND O LAKES   CLOUDY    32  30  92 NE6       29.99S WCI  26
PHILLIPS       CLOUDY    35  31  87 N5        29.96S WCI  31
TOMAHAWK       CLOUDY    35  30  81 CALM      29.96S
MEDFORD        CLOUDY    36  30  79 NE9       29.93S WCI  29
MERRILL        CLOUDY    37  31  81 NE5       29.96R WCI  33
$$

WIZ029-030-035-036-043>047-220200-
CENTRAL WISCONSIN

CITY           SKY/WX    TMP DP  RH WIND       PRES   REMARKS
WAUSAU         MOCLDY    39  29  67 NE3       29.92S
MOSINEE        MOCLDY    37  30  75 E5        29.95R WCI  34
MARSHFIELD     CLOUDY    37  30  75 NE6       29.92R WCI  32
STEVENS POINT  CLOUDY    37  30  77 NE6       29.95S WCI  32
WAUPACA        CLOUDY    38  32  78 CALM      29.96S
WAUTOMA        CLOUDY    37  32  82 NE7       29.95S WCI  32
WISC RAPIDS    CLOUDY    39  30  70 E6        29.94S WCI  35
CAMP DOUGLAS   CLOUDY    38  34  83 E7        29.92S WCI  33
$$

WIZ011>013-019>022-031-037>040-048>050-220200-
NORTHEAST WISCONSIN

CITY           SKY/WX    TMP DP  RH WIND       PRES   REMARKS
ANTIGO         CLOUDY    37  30  78 E5        29.95S WCI  33
SHAWANO        MOCLDY    37  32  81 E7        29.97S WCI  32
OCONTO         CLOUDY    34  32  93 E7        30.00R WCI  28
STURGEON BAY   LGT RAIN  33  32  96 E5        30.00S VSB 1/4 WCI  29
GREEN BAY      FOG       33  31  92 E8        29.97F VSB 1/4 WCI  26
MANITOWOC      LGT RAIN  34  34 100 N3        29.98S VSB 1/4
APPLETON       CLOUDY    36  30  80 E6        29.95R HAZE    WCI  31
CLINTONVILLE   FAIR      37  32  81 E6        29.97R WCI  33
OSHKOSH        CLOUDY    34  33  96 NE5       29.95R FOG     WCI  30
$$

WIZ032>034-041-042-053>061-220200-
SOUTHWEST WISCONSIN

CITY           SKY/WX    TMP DP  RH WIND       PRES   REMARKS
LA CROSSE      CLOUDY    37  32  82 CALM      29.90F HAZE
SPARTA         CLOUDY    39  33  81 NE6       29.91F WCI  35
VIROQUA        CLOUDY    38  36  92 E9        29.87F WCI  31
BOSCOBEL       LGT RAIN  36  35  96 NE3       29.89F FOG
PRAIRIE DU CHI DRZL/FOG  33  32  96 CALM      29.87F VSB 1
PLATTEVILLE    CLOUDY    37  37 100 E9        29.86R VSB 1   WCI  31
$$

WIZ056-057-062-063-064-067-068-220200-
SOUTH CENTRAL WISCONSIN

CITY           SKY/WX    TMP DP  RH WIND       PRES   REMARKS
REEDSBURG      CLOUDY    36  36 100 NE6       29.91F FOG     WCI  31
BARABOO/DELLS  DRIZZLE   35  34  95 NE6       29.91F WCI  30
LONE ROCK      CLOUDY    38  37  97 E8        29.90S FOG     WCI  32
MINERAL POINT  RAIN      37  37 100 E8        29.85F WCI  31
MADISON        DRIZZLE   37  36  96 NE7       29.91F FOG     WCI  32
MIDDLETON      CLOUDY    37  37 100 E5        29.90F WCI  34
WATERTOWN      CLOUDY    37  37 100 E7        29.91F FOG     WCI  31
MONROE         LGT RAIN  36  36 100 E7        29.86F VSB 1/4 WCI  30
JANESVILLE     FOG       39  39 100 E9        29.89F VSB 3/4 WCI  33
$$

WIZ051-052-058>065-066-070>072-220200-
SOUTHEAST WISCONSIN

CITY           SKY/WX    TMP DP  RH WIND       PRES   REMARKS
MILWAUKEE      FOG       37  36  96 NE6       29.94S VSB 1/2 WCI  32
WAUKESHA       FOG       34  34 100 NE5       29.94S VSB 1   WCI  30
MILWAUKEE/TIMM FOG       34  32  93 NE5       29.95S VSB 1   WCI  30
RACINE         FOG       38  38 100 E7        29.95S VSB 1/4 WCI  33
BURLINGTON     FOG       36  35  96 E3        29.92F VSB 3/4
KENOSHA        FOG       37  35  92 E7        29.92F VSB 1/4 WCI  32
FOND DU LAC    CLOUDY    35  32  88 N7        29.94S FOG     WCI  29
SHEBOYGAN      FOG       34  34 100 NE7       29.96S VSB 1/4 WCI  28
WEST BEND      DRZL/FOG  34  34 100 E5        29.94S VSB 3/4 WCI  30
JUNEAU         RAIN      36  35  98 CALM      29.93S VSB 1
$$

LSZ147-162-220200-
LAKE SUPERIOR

STATION/POSITION TIME  TEMP    WIND        PRES    WAVE
                       AIR SEA DIR/SP/G            HT/PER
                 (UTC) (F)     (DEG/KT/KT) (MB)    (FT/S)
DEVILS ISLAND    0100   30      60/ 19/ 22 1019.2R
SAXON HARBOR     0030   31      40/  2/  3 1016.9S
$$

LMZ867-665-643>646-220200-
LAKE MICHIGAN

STATION/POSITION TIME  TEMP    WIND        PRES    WAVE
                       AIR SEA DIR/SP/G            HT/PER
                 (UTC) (F)     (DEG/KT/KT) (MB)    (FT/S)
NORTHPORT PIER   0040   33        CALM     1016.3R
KEWAUNEE LAKESHO 0054   35      20/  4/  6 1014.9R
SHEBOYGAN LAKESH 0100   36      70/  8/  8 1015.1F
PORT WASHINGTON  0040   35      40/  7/  9 1015.2F
MILWAUKEE LAKESH 0100   36      30/  7/  8   N/A
KENOSHA   LAKESH 0100   34        CALM     1013.5
$$

TC  - TEMPERATURE IN CELSIUS
VSB - VISIBILITY IN STATUTE MILES
WCI - WIND CHILL INDEX
HX  - HEAT INDEX





USA.gov is the U.S. government's official web portal to all federal, state and local government web resources and services.